[[{"header":{"parameterUnit":"m.s-1","parameterCategory":1,"la1":30.2991,"la2":30.254,"lo1":-89.0895,"lo2":-89.0444,"dy":0.0017,"dx":0.0017,"nx":28,"ny":28,"refTime":"2024-02-26T09:00:00:Z","depth":0,"parameterNumber":2,"parameterNumberName":"U-component_of_WINDS"},"data":[0,0,0,0,0,0,0,0,0,0,0,0,0,0,0,0,0,0,0,0,0,0,0,0,0,0,0,0,0,0,0,0,0,0,0,0,0,0,0,0,0,0,0,0,0,0,0,0,0,0,0,0,0,0,0,0,0,0,1.0503,1.0502,0,1.045,1.045,1.0449,1.0406,1.0406,1.0405,1.0405,1.035,1.0349,1.0348,0,0,0,0,0,0,0,0,0,0,0,0,0,1.0564,1.0564,1.0503,1.0502,1.0502,1.045,1.045,1.0449,1.0406,1.0406,1.0405,1.0405,1.0351,1.0349,1.0348,0,0,0,0,0,0,0,0,0,0,0,0,0,1.0527,1.0563,1.0503,1.0474,1.0471,1.045,1.045,1.0449,1.0406,1.0406,1.0405,1.0404,1.0351,1.0349,1.0348,1.0351,0,0,1.0343,1.0342,0,0,0,0,0,0,0,0,1.053,1.0525,1.0479,1.0476,1.0473,1.0434,1.0451,1.0416,1.0407,1.0431,1.0405,1.0404,1.0379,1.0375,1.0366,1.0349,1.0346,1.0343,1.0342,1.0341,1.0341,0,0,0,0,0,0,0,1.0532,1.0527,1.0482,1.0478,1.0474,1.0463,1.0457,1.0444,1.0409,1.0429,1.0426,1.042,1.0377,1.0368,1.0365,1.0346,1.0343,1.0342,1.0341,1.034,1.0326,1.0327,0,0,0,0,0,0,1.0539,1.053,1.0484,1.048,1.05,1.0463,1.0456,1.0447,1.0409,1.0403,1.0421,1.0418,1.0371,1.0367,1.0363,1.0363,1.0341,1.034,1.0339,1.0326,1.0326,1.0327,0,0,0,0,0,0,1.0541,1.0536,1.0486,1.0504,1.0497,1.0462,1.0453,1.0446,1.0438,1.0403,1.0396,1.0418,1.037,1.0365,1.0354,1.0361,1.0339,1.0338,1.0325,1.0326,1.0327,1.0365,0,0,0,0,0,0,1.0543,1.0537,1.0538,1.0504,1.0496,1.0479,1.0453,1.0446,1.0435,1.0431,1.0399,1.0393,1.0369,1.0357,1.0353,1.0358,1.0336,1.0324,1.0325,1.0326,1.0363,1.0367,1.037,0,0,0,0,0,1.0545,1.0551,1.0539,1.0533,1.0497,1.048,1.0475,1.0448,1.0436,1.0437,1.0414,1.0394,1.036,1.0356,1.0351,1.0356,1.0324,1.0325,1.0326,1.0361,1.0366,1.037,0,0,0,0,0,0,1.0587,1.0546,1.0532,1.0527,1.0507,1.0472,1.0473,1.0454,1.0437,1.0434,1.0401,1.0394,1.0386,1.037,1.0366,1.0356,1.0339,1.034,1.0367,1.0372,1.0376,1.038,1.0335,0,0,0,0,0,1.0595,1.0585,1.055,1.0549,1.054,1.0508,1.0499,1.048,1.0458,1.0449,1.0426,1.0404,1.0389,1.0379,1.0363,1.036,1.0352,1.0361,1.0365,1.0368,1.0369,1.0364,1.0367,1.0331,1.0331,1.0331,0,0,1.0613,1.059,1.0585,1.0557,1.0539,1.0528,1.0501,1.0491,1.0482,1.0447,1.0436,1.0418,1.0391,1.0384,1.038,1.037,1.0376,1.0369,1.0372,1.0371,1.0366,1.0369,1.0372,1.0332,1.0332,1.0332,0,0,1.064,1.0621,1.0618,1.06,1.0574,1.0552,1.0551,1.0519,1.0506,1.0493,1.0467,1.0455,1.043,1.0412,1.0399,1.0417,1.0397,1.0413,1.0432,1.0428,1.0431,1.0433,1.0439,1.0441,1.0413,1.0413,1.0414,0,1.0665,1.0648,1.0619,1.061,1.0597,1.0565,1.0561,1.0545,1.0514,1.0506,1.0496,1.0462,1.0442,1.0429,1.0434,1.0425,1.0422,1.0416,1.0433,1.0435,1.0437,1.0442,1.0444,1.0415,1.0415,1.0415,1.0415,0,1.068,1.0668,1.0668,1.0639,1.0627,1.0621,1.059,1.058,1.0562,1.0541,1.0528,1.0503,1.0481,1.0476,1.0458,1.046,1.0455,1.0439,1.0422,1.0443,1.0447,1.0448,1.0418,1.0418,1.0417,1.0416,0,0,1.0732,1.0686,1.0687,1.0672,1.064,1.063,1.0621,1.0599,1.0591,1.057,1.0562,1.054,1.0525,1.051,1.049,1.0486,1.05,1.0471,1.047,1.0477,1.05,1.0512,1.0514,1.0487,1.0487,1.0487,1.0502,0,1.0753,1.0736,1.0709,1.07,1.0688,1.0657,1.0649,1.0627,1.0607,1.0594,1.0571,1.0556,1.0538,1.0529,1.0524,1.05,1.0505,1.0498,1.0478,1.0477,1.0485,1.0516,1.0529,1.0544,1.0503,1.0503,1.0504,0,1.0776,1.0756,1.0747,1.0714,1.0708,1.0701,1.0678,1.0666,1.064,1.0625,1.0609,1.0586,1.0574,1.0557,1.0539,1.0536,1.0525,1.0512,1.0512,1.0509,1.0492,1.0514,1.0548,1.0551,1.0506,1.0506,1.0506,0,1.0814,1.0786,1.0776,1.0765,1.0726,1.0722,1.0705,1.0679,1.0667,1.0646,1.0638,1.0616,1.0604,1.0587,1.0559,1.055,1.0543,1.0525,1.053,1.0531,1.0531,1.0531,1.0564,1.0525,1.0525,1.0525,1.0524,0,1.084,1.0835,1.0792,1.0787,1.078,1.0748,1.0741,1.0722,1.0698,1.0687,1.0658,1.0648,1.0611,1.0596,1.0574,1.0561,1.0556,1.0544,1.0538,1.0546,1.0548,1.0539,1.0537,1.0525,1.0525,1.0525,1.0525,0,1.0882,1.0853,1.084,1.0804,1.0795,1.0791,1.076,1.0752,1.073,1.0716,1.0711,1.0676,1.0657,1.0626,1.0598,1.0583,1.0575,1.0565,1.0583,1.058,1.0586,1.0586,1.0614,1.0616,1.0577,1.0577,1.0577,0,1.09,1.0896,1.0859,1.0849,1.0834,1.0819,1.0806,1.0774,1.0762,1.0731,1.0727,1.0706,1.0687,1.0658,1.0629,1.0607,1.0596,1.0608,1.0593,1.0601,1.0596,1.0596,1.0595,1.0611,1.0612,1.0612,1.0613,0,1.0936,1.0921,1.0905,1.0883,1.0868,1.0849,1.0829,1.0822,1.0785,1.0773,1.0753,1.0738,1.0709,1.0688,1.0662,1.0643,1.0622,1.0618,1.0617,1.0626,1.0637,1.063,1.0592,1.0617,1.0617,1.0616,1.0616,1.0616,1.0966,1.096,1.0933,1.0915,1.0896,1.0877,1.0867,1.0844,1.0827,1.0801,1.0782,1.0763,1.0736,1.0698,1.0681,1.0665,1.0655,1.0655,1.0655,1.0656,1.0658,1.0639,1.066,1.066,1.066,1.0659,1.0659,0,1.0999,1.098,1.0964,1.0936,1.0921,1.0902,1.0877,1.0866,1.085,1.0826,1.0808,1.0784,1.0763,1.0732,1.0709,1.0701,1.0691,1.0696,1.0696,1.0692,1.0669,1.0671,1.0705,1.0705,1.0705,1.0705,1.0705,1.0705,1.1015,1.1004,1.0986,1.0964,1.0944,1.0926,1.0913,1.0895,1.0876,1.0851,1.0833,1.0813,1.0786,1.076,1.0739,1.073,1.0723,1.0731,1.0719,1.0698,1.0694,1.069,1.0692,1.073,1.073,1.0744,1.0744,1.0744]},{"header":{"parameterUnit":"m.s-1","parameterCategory":1,"la1":30.2991,"la2":30.254,"lo1":-89.0895,"lo2":-89.0444,"dy":0.0017,"dx":0.0017,"nx":28,"ny":28,"refTime":"2024-02-26T09:00:00:Z","depth":0,"parameterNumber":3,"parameterNumberName":"V-component_of_WINDS"},"data":[0,0,0,0,0,0,0,0,0,0,0,0,0,0,0,0,0,0,0,0,0,0,0,0,0,0,0,0,0,0,0,0,0,0,0,0,0,0,0,0,0,0,0,0,0,0,0,0,0,0,0,0,0,0,0,0,0,0,4.1699,4.1699,0,4.168,4.168,4.168,4.1661,4.1661,4.1661,4.166,4.1639,4.1638,4.1638,0,0,0,0,0,0,0,0,0,0,0,0,0,4.1719,4.1719,4.1699,4.1699,4.1699,4.168,4.168,4.168,4.1661,4.1661,4.1661,4.166,4.1639,4.1638,4.1638,0,0,0,0,0,0,0,0,0,0,0,0,0,4.1706,4.1719,4.17,4.1688,4.1686,4.168,4.168,4.168,4.1661,4.1661,4.1661,4.166,4.1639,4.1638,4.1638,4.1642,0,0,4.1636,4.1636,0,0,0,0,0,0,0,0,4.1707,4.1705,4.169,4.1688,4.1687,4.1673,4.1679,4.1667,4.1661,4.1671,4.166,4.166,4.165,4.1649,4.1646,4.1641,4.164,4.1636,4.1636,4.1636,4.1635,0,0,0,0,0,0,0,4.1708,4.1706,4.1692,4.1689,4.1688,4.1683,4.1681,4.1676,4.1663,4.167,4.1668,4.1667,4.1649,4.1646,4.1645,4.1639,4.1636,4.1636,4.1635,4.1635,4.1638,4.1638,0,0,0,0,0,0,4.1711,4.1707,4.1692,4.1691,4.1696,4.1683,4.168,4.1678,4.1663,4.166,4.1667,4.1666,4.1647,4.1646,4.1644,4.1649,4.1636,4.1635,4.1635,4.1637,4.1638,4.1638,0,0,0,0,0,0,4.1711,4.171,4.1693,4.1699,4.1696,4.1683,4.168,4.1677,4.1674,4.166,4.1658,4.1666,4.1647,4.1645,4.1643,4.1648,4.1635,4.1634,4.1637,4.1637,4.1638,4.1657,0,0,0,0,0,0,4.1712,4.171,4.1711,4.1699,4.1696,4.1692,4.168,4.1677,4.1674,4.1672,4.1659,4.1657,4.1647,4.1644,4.1642,4.1647,4.1634,4.1636,4.1637,4.1638,4.1656,4.1658,4.166,0,0,0,0,0,4.1713,4.1717,4.1712,4.171,4.1698,4.1693,4.1691,4.168,4.1674,4.1676,4.1667,4.1657,4.1647,4.1644,4.1642,4.1646,4.1636,4.1637,4.1638,4.1655,4.1658,4.166,0,0,0,0,0,0,4.1729,4.1715,4.1709,4.1709,4.1703,4.169,4.1691,4.1683,4.1677,4.1676,4.1662,4.1659,4.1659,4.1652,4.1648,4.165,4.164,4.1641,4.1654,4.1657,4.1659,4.1661,4.1633,0,0,0,0,0,4.1733,4.1731,4.1718,4.1719,4.1717,4.1705,4.1702,4.1694,4.1686,4.1683,4.1674,4.1666,4.1662,4.1659,4.1653,4.1655,4.1652,4.1657,4.1659,4.1661,4.1662,4.1664,4.1666,4.1641,4.1641,4.1641,0,0,4.174,4.1732,4.1731,4.1723,4.1716,4.1714,4.1702,4.17,4.1698,4.1682,4.168,4.1674,4.1664,4.1664,4.1664,4.1659,4.1668,4.1662,4.1664,4.1664,4.1665,4.1667,4.1669,4.1642,4.1642,4.1641,0,0,4.1753,4.1747,4.1748,4.1742,4.1734,4.1726,4.1726,4.1715,4.171,4.1708,4.1697,4.1694,4.1686,4.168,4.1676,4.1688,4.168,4.1687,4.1698,4.17,4.1702,4.1704,4.1709,4.1711,4.1688,4.1688,4.1688,0,4.1763,4.176,4.1749,4.1748,4.1745,4.1732,4.1733,4.1728,4.1718,4.1716,4.171,4.1701,4.1694,4.1693,4.1696,4.1693,4.1693,4.1689,4.1703,4.1704,4.1706,4.1711,4.1713,4.1689,4.1689,4.1688,4.1688,0,4.1774,4.1772,4.1774,4.1766,4.1763,4.1763,4.1752,4.175,4.1743,4.1736,4.1734,4.1725,4.1718,4.1717,4.1709,4.1716,4.1713,4.1705,4.1696,4.1709,4.1714,4.1716,4.169,4.169,4.169,4.1689,0,0,4.1796,4.1783,4.1784,4.1781,4.1771,4.1769,4.1769,4.1763,4.1763,4.1756,4.1756,4.175,4.1743,4.1739,4.173,4.1732,4.1744,4.1724,4.1724,4.1729,4.1752,4.1759,4.1761,4.1738,4.1738,4.1738,4.1753,0,4.1808,4.1808,4.1799,4.1801,4.1799,4.1787,4.1787,4.1781,4.1775,4.1772,4.1765,4.1761,4.1752,4.175,4.175,4.1742,4.1748,4.1741,4.1738,4.1738,4.1742,4.1763,4.177,4.1784,4.1755,4.1755,4.1755,0,4.1822,4.1818,4.182,4.1812,4.1811,4.1811,4.1806,4.1804,4.1797,4.1792,4.1788,4.1779,4.1778,4.1769,4.1768,4.1764,4.1762,4.1758,4.1758,4.1758,4.1748,4.1765,4.1788,4.1791,4.1758,4.1757,4.1757,0,4.1839,4.1834,4.1836,4.1833,4.1823,4.1823,4.1819,4.1812,4.181,4.1805,4.1804,4.1799,4.1796,4.1792,4.1782,4.1776,4.1783,4.1773,4.178,4.178,4.1782,4.1782,4.1807,4.178,4.178,4.1779,4.1779,0,4.1854,4.1856,4.1844,4.1844,4.1847,4.1836,4.1839,4.1833,4.1827,4.1827,4.1815,4.1815,4.1802,4.18,4.1792,4.1794,4.1792,4.1788,4.1786,4.179,4.1791,4.1789,4.1788,4.178,4.178,4.178,4.178,0,4.1874,4.1865,4.1866,4.1857,4.1855,4.1857,4.1849,4.185,4.1843,4.1843,4.1842,4.1831,4.1829,4.1819,4.1813,4.1808,4.1812,4.1808,4.1815,4.1814,4.1822,4.1822,4.1847,4.185,4.182,4.182,4.1821,0,4.1884,4.1886,4.1878,4.1877,4.1874,4.1873,4.1871,4.186,4.1859,4.1852,4.1854,4.1851,4.1848,4.1845,4.1836,4.1832,4.1828,4.1837,4.1828,4.1832,4.183,4.183,4.1831,4.184,4.184,4.184,4.1841,0,4.1904,4.19,4.1898,4.1896,4.1894,4.1891,4.1888,4.1888,4.1876,4.1875,4.1873,4.1871,4.1867,4.1864,4.1859,4.1854,4.1846,4.1844,4.1846,4.185,4.1854,4.1853,4.1822,4.1843,4.1843,4.1843,4.1843,4.1843,4.192,4.1922,4.1917,4.1916,4.1912,4.1909,4.191,4.1904,4.1902,4.1899,4.1892,4.1892,4.1886,4.1879,4.1875,4.1874,4.1869,4.1871,4.1872,4.1873,4.1875,4.1854,4.1873,4.1873,4.1873,4.1873,4.1873,0,4.194,4.1937,4.1936,4.1932,4.1931,4.1924,4.192,4.192,4.192,4.1915,4.1913,4.1912,4.191,4.1902,4.1899,4.19,4.1896,4.19,4.19,4.1899,4.1879,4.1879,4.1903,4.1903,4.1903,4.1903,4.1903,4.1903,4.1951,4.1954,4.195,4.1951,4.1947,4.1948,4.1946,4.1944,4.194,4.194,4.1938,4.1933,4.1928,4.1924,4.1922,4.192,4.192,4.1925,4.1922,4.1903,4.19,4.1897,4.1897,4.1925,4.1925,4.1942,4.1942,4.1942]}]]